Hallock, MN

3:11 PM CDT on September 19, 2017 (GMT -0500)
Hallock Municipal

Weather History for KHCO - December, 2013

Change the Weather History Date:

Saturday, December 14, 2013

  Actual Average Record
Temperature  
Mean Temperature -10 °F -  
Max Temperature -2 °F 16 °F 39 °F (1997)
Min Temperature -18 °F -1 °F -27 °F (1958)
Degree Days  
Heating Degree Days 75    
Moisture  
Dew Point -15 °F    
Average Humidity 71    
Maximum Humidity 78    
Minimum Humidity 55    
Precipitation  
Precipitation 0.01 in - - ()
Sea Level Pressure  
Sea Level Pressure 30.25 in    
Wind  
Wind Speed 5 mph (North)    
Max Wind Speed 12 mph    
Max Gust Speed -    
Visibility 7 miles    
Events Snow    
Averages and records for this station are not official NWS values.
T = Trace of Precipitation, MM = Missing Value Source: NWS Daily Summary

Daily Weather History Graph

Daily Weather History Graph

Search for Another Location

Airport or City:

Trip Planner

Search our weather history database for the weather conditions in past years. The results will help you decide how hot, cold, wet, or windy it might be!

Date:

Astronomy

Dec. 14, 2013 Rise Set
Actual Time 8:13 AM CST 4:31 PM CST
Civil Twilight 7:36 AM CST 5:08 PM CST
Nautical Twilight 6:56 AM CST 5:48 PM CST
Astronomical Twilight 6:17 AM CST 6:27 PM CST
Moon 3:02 PM CST (12/14) 5:26 AM CST (12/14)
Length of Visible Light 9h 32m
Length of Day
8h 18m
Waxing Gibbous, 94% of the Moon is Illuminated
Dec 14
Waxing Gibbous
Dec 17
Full
Dec 25
Last Quarter
Jan 1
New
Jan 7
First Quarter

Hourly Weather History & Observations

Time (CST) Temp. Windchill Dew Point Humidity Pressure Visibility Wind Dir Wind Speed Gust Speed Precip Events Conditions
12:13 AM -4.0 °F -12.4 °F -16.6 °F 55% 30.39 in 10.0 mi East 3.5 mph - N/A   Clear
12:33 AM -4.0 °F -14.6 °F -16.6 °F 55% 30.39 in 10.0 mi East 4.6 mph - N/A   Clear
12:53 AM -4.0 °F -12.4 °F -14.8 °F 60% 30.39 in 10.0 mi NE 3.5 mph - N/A   Scattered Clouds
1:13 AM -4.0 °F -14.6 °F -14.8 °F 60% 30.38 in 10.0 mi ENE 4.6 mph - N/A   Mostly Cloudy
1:33 AM -4.0 °F -12.4 °F -16.6 °F 55% 30.38 in 10.0 mi ENE 3.5 mph - N/A   Overcast
1:53 AM -4.0 °F -14.6 °F -16.6 °F 55% 30.37 in 10.0 mi East 4.6 mph - N/A   Overcast
2:13 AM -4.0 °F -19.0 °F -14.8 °F 60% 30.36 in 10.0 mi East 8.1 mph - N/A   Overcast
2:33 AM -5.8 °F -19.9 °F -14.8 °F 65% 30.36 in 7.0 mi East 6.9 mph - N/A Snow Light Snow
2:53 AM -5.8 °F -18.4 °F -14.8 °F 65% 30.35 in 3.0 mi East 5.8 mph - N/A Snow Light Snow
3:13 AM -5.8 °F -18.4 °F -14.8 °F 65% 30.35 in 7.0 mi East 5.8 mph - N/A Snow Light Snow
3:33 AM -5.8 °F -16.7 °F -13.0 °F 71% 30.34 in 2.0 mi East 4.6 mph - N/A Snow Light Snow
3:53 AM -5.8 °F -18.4 °F -13.0 °F 71% 30.33 in 2.5 mi East 5.8 mph - N/A Snow Light Snow
4:13 AM -5.8 °F -18.4 °F -11.2 °F 77% 30.33 in 1.8 mi East 5.8 mph - N/A Snow Light Snow
4:33 AM -5.8 °F -18.4 °F -11.2 °F 77% 30.32 in 2.0 mi East 5.8 mph - N/A Snow Light Snow
4:53 AM -5.8 °F -18.4 °F -11.2 °F 77% 30.31 in 2.0 mi East 5.8 mph - N/A Snow Light Snow
5:13 AM -5.8 °F -18.4 °F -11.2 °F 77% 30.30 in 2.5 mi East 5.8 mph - N/A Snow Light Snow
5:33 AM -5.8 °F -18.4 °F -11.2 °F 77% 30.30 in 2.5 mi East 5.8 mph - N/A Snow Light Snow
5:53 AM -5.8 °F -16.7 °F -11.2 °F 77% 30.29 in 3.0 mi ESE 4.6 mph - N/A Snow Light Snow
6:13 AM -5.8 °F -18.4 °F -11.2 °F 77% 30.28 in 3.0 mi ESE 5.8 mph - N/A Snow Light Snow
6:33 AM -5.8 °F -14.5 °F -11.2 °F 77% 30.27 in 3.0 mi ESE 3.5 mph - N/A Snow Light Snow
6:53 AM -4.0 °F - -11.2 °F 71% 30.27 in 3.0 mi Calm Calm - N/A Snow Light Snow
7:13 AM -4.0 °F -12.4 °F -11.2 °F 71% 30.27 in 2.5 mi ESE 3.5 mph - N/A Snow Light Snow
7:33 AM -4.0 °F - -11.2 °F 71% 30.27 in 4.0 mi Calm Calm - N/A Snow Light Snow
7:53 AM -4.0 °F - -11.2 °F 71% 30.25 in 7.0 mi Calm Calm - N/A Snow Light Snow
8:13 AM -4.0 °F - -11.2 °F 71% 30.25 in 7.0 mi Calm Calm - N/A Snow Light Snow
8:33 AM -4.0 °F - -11.2 °F 71% 30.25 in 7.0 mi Calm Calm - N/A Snow Light Snow
8:53 AM -4.0 °F - -11.2 °F 71% 30.26 in 5.0 mi Calm Calm - N/A Snow Light Snow
9:13 AM -4.0 °F - -9.4 °F 78% 30.26 in 3.0 mi Calm Calm - N/A Snow Light Snow
9:33 AM -4.0 °F - -9.4 °F 78% 30.25 in 2.0 mi Calm Calm - N/A Snow Light Snow
9:53 AM -4.0 °F - -9.4 °F 78% 30.24 in 2.0 mi Calm Calm - N/A Snow Light Snow
10:13 AM -4.0 °F - -9.4 °F 78% 30.24 in 1.8 mi Calm Calm - 0.01 in Snow Light Snow
10:33 AM -4.0 °F - -9.4 °F 78% 30.24 in 2.0 mi Calm Calm - 0.01 in Snow Light Snow
10:53 AM -4.0 °F -12.4 °F -9.4 °F 78% 30.23 in 2.5 mi WNW 3.5 mph - 0.01 in Snow Light Snow
11:13 AM -2.2 °F -15.6 °F -9.4 °F 71% 30.23 in 2.5 mi NW 6.9 mph - N/A Snow Light Snow
11:33 AM -2.2 °F -18.0 °F -9.4 °F 71% 30.22 in 2.5 mi NW 9.2 mph - N/A Snow Light Snow
11:53 AM -4.0 °F -19.0 °F -11.2 °F 71% 30.22 in 4.0 mi NW 8.1 mph - N/A Snow Light Snow
12:13 PM -2.2 °F -18.0 °F -11.2 °F 66% 30.21 in 4.0 mi NNW 9.2 mph - N/A   Haze
12:33 PM -4.0 °F -20.2 °F -11.2 °F 71% 30.20 in 4.0 mi NNW 9.2 mph - N/A Snow Light Snow
12:53 PM -4.0 °F -20.2 °F -11.2 °F 71% 30.19 in 10.0 mi NNW 9.2 mph - N/A   Overcast
1:13 PM -4.0 °F -21.2 °F -11.2 °F 71% 30.18 in 7.0 mi NNW 10.4 mph - N/A   Scattered Clouds
1:33 PM -4.0 °F -22.1 °F -11.2 °F 71% 30.18 in 10.0 mi NNW 11.5 mph - N/A   Clear
1:53 PM -4.0 °F -22.1 °F -11.2 °F 71% 30.18 in 10.0 mi NNW 11.5 mph - N/A   Mostly Cloudy
2:13 PM -4.0 °F -21.2 °F -11.2 °F 71% 30.19 in 10.0 mi NNW 10.4 mph - N/A   Overcast
2:33 PM -4.0 °F -22.1 °F -11.2 °F 71% 30.18 in 10.0 mi NNW 11.5 mph - N/A   Overcast
2:53 PM -4.0 °F -21.2 °F -11.2 °F 71% 30.17 in 10.0 mi North 10.4 mph - N/A   Mostly Cloudy
3:13 PM -4.0 °F -20.2 °F -11.2 °F 71% 30.18 in 10.0 mi North 9.2 mph - N/A   Scattered Clouds
3:33 PM -5.8 °F -23.4 °F -13.0 °F 71% 30.19 in 10.0 mi NNW 10.4 mph - N/A   Clear
3:53 PM -5.8 °F -24.4 °F -13.0 °F 71% 30.20 in 10.0 mi NNW 11.5 mph - N/A   Clear
4:13 PM -7.6 °F -26.6 °F -14.8 °F 71% 30.20 in 10.0 mi NNW 11.5 mph - N/A   Clear
4:33 PM -7.6 °F -26.6 °F -14.8 °F 71% 30.21 in 10.0 mi NNW 11.5 mph - N/A   Clear
4:53 PM -9.4 °F -27.9 °F -14.8 °F 77% 30.21 in 10.0 mi NNW 10.4 mph - N/A   Clear
5:13 PM -9.4 °F -26.8 °F -16.6 °F 71% 30.21 in 10.0 mi NNW 9.2 mph - N/A   Clear
5:33 PM -11.2 °F -27.8 °F -16.6 °F 77% 30.22 in 10.0 mi NNW 8.1 mph - N/A   Clear
5:53 PM -11.2 °F -29.0 °F -16.6 °F 77% 30.21 in 10.0 mi NNW 9.2 mph - N/A   Clear
6:13 PM -11.2 °F -24.8 °F -18.4 °F 70% 30.20 in 10.0 mi NNW 5.8 mph - N/A   Clear
6:33 PM -14.8 °F -30.8 °F -20.2 °F 77% 30.21 in 10.0 mi NNW 6.9 mph - N/A   Clear
6:53 PM -13.0 °F -31.3 °F -18.4 °F 77% 30.21 in 10.0 mi NNW 9.2 mph - N/A   Clear
7:13 PM -14.8 °F -30.8 °F -20.2 °F 77% 30.21 in 10.0 mi NNW 6.9 mph - N/A   Clear
7:33 PM -14.8 °F -30.8 °F -20.2 °F 77% 30.20 in 10.0 mi NNW 6.9 mph - N/A   Clear
7:53 PM -14.8 °F -29.1 °F -20.2 °F 77% 30.20 in 10.0 mi NNW 5.8 mph - N/A   Clear
8:13 PM -16.6 °F -31.3 °F -22.0 °F 76% 30.21 in 10.0 mi NNW 5.8 mph - N/A   Clear
8:33 PM -18.4 °F -36.6 °F -23.8 °F 76% 30.21 in 10.0 mi NNW 8.1 mph - N/A   Clear
8:53 PM -16.6 °F -34.4 °F -23.8 °F 70% 30.22 in 10.0 mi NNW 8.1 mph - N/A   Clear
9:13 PM -16.6 °F -32.9 °F -23.8 °F 70% 30.21 in 10.0 mi North 6.9 mph - N/A   Clear
9:33 PM -16.6 °F -31.3 °F -22.0 °F 76% 30.22 in 10.0 mi North 5.8 mph - N/A   Clear
9:53 PM -16.6 °F -29.3 °F -22.0 °F 76% 30.22 in 10.0 mi NNW 4.6 mph - N/A   Clear
10:13 PM -18.4 °F - -23.8 °F 76% 30.23 in 10.0 mi Calm Calm - N/A   Clear
10:33 PM -16.6 °F -26.8 °F -23.8 °F 70% 30.23 in 10.0 mi NNW 3.5 mph - N/A   Scattered Clouds
10:53 PM -16.6 °F - -23.8 °F 70% 30.23 in 10.0 mi Calm Calm - N/A   Scattered Clouds
11:13 PM -16.6 °F - -23.8 °F 70% 30.22 in 10.0 mi Calm Calm - N/A   Clear
11:33 PM -16.6 °F -26.8 °F -23.8 °F 70% 30.23 in 10.0 mi NW 3.5 mph - N/A   Clear
11:54 PM -18.4 °F -33.4 °F -25.6 °F 70% 30.23 in 10.0 mi WNW 5.8 mph - N/A   Clear